This demonstration page uses our WeatherBlox Daily Observations layout. Learn more.

Left ArrowRight Arrow

31.84235, -102.49876

Hourly Observations for March 21, 2015

Temp ( °F °C ) Dew Point ( °F °C ) Humidity (%) Winds ( mph kmh ) Pressure ( in mb ) Visibility ( mi km ) Precip ( " mm )
12:42 am 00:42 Mostly Clear with Mist and Fog 50 10 48 8.9 93 93 SSW 5 7 30.18 1022 3 5 0.00 0.00
12:53 am 00:53 Mostly Clear with Mist and Fog 50 10 47 8.3 89 89 SW 3 6 30.16 1021 3 5 0.00 0.00
1:53 am 01:53 Clear with Mist and Fog 50 10 48 8.9 93 93 SSW 5 7 30.14 1021 3 5 0.00 0.00
2:45 am 02:45 Mostly Cloudy with Mist and Fog 50 10 47 8.3 89 89 VRB 6 9 30.18 1022 4 6 0.00 0.00
2:53 am 02:53 Cloudy with Mist and Fog 50 10 47 8.3 89 89 WSW 5 7 30.15 1021 3 5 0.00 0.00
3:02 am 03:02 Cloudy with Mist and Fog 50 10 48 8.9 93 93 SW 5 7 30.15 1021 3 5 0.00 0.00
3:15 am 03:15 Cloudy with Mist and Fog 50 10 48 8.9 93 93 SW 3 6 30.15 1021 3 5 0.00 0.00
3:53 am 03:53 Cloudy with Mist and Fog 50 10 48 8.9 93 93 NW 3 6 30.11 1020 3 5 0.00 0.00
4:26 am 04:26 Cloudy with Mist and Fog 50 10 48 8.9 93 93 NNW 5 7 30.12 1020 3 5 0.00 0.00
4:53 am 04:53 Cloudy with Mist and Fog 50 10 48 8.9 93 93 N 6 9 30.08 1019 3 5 0.00 0.00
5:02 am 05:02 Cloudy with Mist and Fog 50 10 48 8.9 93 93 NNE 5 7 30.09 1019 3 4 0.00 0.00
5:29 am 05:29 Cloudy with Mist and Fog 50 10 48 8.9 93 93 Calm 30.12 1020 3 4 0.00 0.00
5:53 am 05:53 Cloudy with Light Rain 50 10 48 8.9 93 93 N 5 7 30.08 1019 3 4 0.00 0.03
6:17 am 06:17 Cloudy with Light Rain 50 10 48 8.9 93 93 NNW 3 6 30.12 1020 3 5 0.00 0.03
6:24 am 06:24 Cloudy with Light Rain 50 10 48 8.9 93 93 NNW 5 7 30.12 1020 3 4 0.00 0.03
6:30 am 06:30 Cloudy with Light Rain 50 10 48 8.9 93 93 NNW 5 7 30.09 1019 3 5 0.00 0.03
6:43 am 06:43 Cloudy with Light Rain 50 10 48 8.9 93 93 NNW 5 7 30.12 1020 3 5 0.01 0.25
6:53 am 06:53 Cloudy with Light Rain 50 10 48 8.9 93 93 NNE 3 6 30.08 1019 3 4 0.01 0.25
7:07 am 07:07 Cloudy with Light Rain 50 10 48 8.9 93 93 N 5 7 30.09 1019 3 5 0.00 0.03
7:38 am 07:38 Cloudy with Light Rain 50 10 48 8.9 93 93 N 7 11 30.12 1020 3 4 0.01 0.25
7:45 am 07:45 Cloudy with Light Rain 50 10 48 8.9 93 93 N 7 11 30.12 1020 3 5 0.01 0.25
7:53 am 07:53 Cloudy with Mist and Fog 50 10 48 8.9 93 93 N 7 11 30.09 1019 3 5 0.01 0.25
8:00 am 08:00 Cloudy with Mist and Fog 50 10 48 8.9 93 93 NNE 6 9 30.12 1020 3 4 0.00 0.00
8:11 am 08:11 Cloudy with Mist and Fog 50 10 48 8.9 93 93 NNE 5 7 30.12 1020 3 5 0.00 0.00
8:20 am 08:20 Cloudy with Mist and Fog 50 10 48 8.9 93 93 NNE 5 7 30.12 1020 2 3 0.00 0.00
8:28 am 08:28 Cloudy with Light Rain 50 10 48 8.9 93 93 NNE 3 6 30.12 1020 2 3 0.00 0.03
8:53 am 08:53 Cloudy with Light Rain 51 10.6 48 8.9 89 89 Calm 30.11 1020 2 3 0.00 0.03
9:06 am 09:06 Cloudy with Rain 50 10 48 8.9 93 93 N 3 6 30.15 1021 2 2 0.02 0.51
9:22 am 09:22 Cloudy with Rain 51 10.6 48 8.9 89 89 NNW 3 6 30.15 1021 2 2 0.05 1.27
9:31 am 09:31 Cloudy with Rain 51 10.6 48 8.9 89 89 N 6 9 30.15 1021 1 2 0.07 1.78
9:53 am 09:53 Cloudy with Rain 51 10.6 48 8.9 89 89 N 6 9 30.14 1021 2 3 0.11 2.79
10:18 am 10:18 Cloudy with Light Rain 51 10.6 48 8.9 89 89 NNE 7 11 30.18 1022 2 3 0.05 1.27
10:51 am 10:51 Cloudy with Light Rain 52 11 48 9 88 88 NE 6 9 30.18 1022 3 4 0.08 2.03
10:53 am 10:53 Cloudy with Light Rain 51 10.6 48 8.9 89 89 NE 6 9 30.15 1021 3 4 0.08 2.03
11:53 am 11:53 Cloudy with Light Rain 51 10.6 49 9.4 92 92 ENE 7 11 30.14 1021 3 5 0.07 1.78
12:08 pm 12:08 Cloudy with Light Rain 52 11.1 49 9.4 89 89 E 8 13 30.15 1021 3 5 0.01 0.25
12:15 pm 12:15 Cloudy with Light Rain 52 11.1 49 9.4 89 89 E 8 13 30.15 1021 3 5 0.02 0.51
12:27 pm 12:27 Cloudy with Light Rain 52 11.1 49 9.4 89 89 E 7 11 30.15 1021 4 6 0.02 0.51
12:53 pm 12:53 Cloudy with Rain 52 11.1 49 9.4 89 89 E 14 22 30.10 1019 3 5 0.06 1.52
1:08 pm 13:08 Cloudy with Light Rain 52 11.1 49 9.4 89 89 ESE 12 19 30.12 1020 3 5 0.02 0.51
1:23 pm 13:23 Cloudy with Rain 52 11.1 49 9.4 89 89 ESE 10 17 30.12 1020 3 4 0.04 1.02
1:30 pm 13:30 Cloudy with Light Rain 52 11.1 50 10 93 93 ESE 8 13 30.12 1020 3 5 0.05 1.27
1:39 pm 13:39 Cloudy with Light Rain 52 11.1 50 10 93 93 E 6 9 30.12 1020 3 5 0.06 1.52
1:53 pm 13:53 Cloudy with Rain 52 11.1 50 10 93 93 ENE 13 20 30.06 1018 3 4 0.08 2.03
2:00 pm 14:00 Cloudy with Rain 52 11.1 50 10 93 93 ENE 22 35 30.09 1019 3 4 0.02 0.51
2:11 pm 14:11 Cloudy with Light Rain 52 11.1 50 10 93 93 ENE 23 37 30.06 1018 4 6 0.03 0.76
2:36 pm 14:36 Cloudy with Light Rain 52 11.1 50 10 93 93 ESE 9 15 30.09 1019 6 10 0.05 1.27
2:53 pm 14:53 Cloudy with Light Rain 53 11.7 50 10 89 89 NE 7 11 30.02 1017 7 11 0.05 1.27
3:53 pm 15:53 Cloudy 54 12.2 51 10.6 90 90 NNE 8 13 30.00 1016 9 14 0.02 0.51
4:10 pm 16:10 Cloudy 54 12.2 51 10.6 90 90 NE 10 17 30.03 1017 10 16 0.00 0.00
4:53 pm 16:53 Cloudy 54 12.2 51 10.6 90 90 N 7 11 30.00 1016 10 16 0.00 0.00
5:19 pm 17:19 Cloudy 55 12.8 51 10.6 87 87 NNE 6 9 30.03 1017 10 16 0.00 0.00
5:35 pm 17:35 Cloudy 55 12.8 51 10.6 87 87 NE 7 11 30.03 1017 10 16 0.00 0.00
5:53 pm 17:53 Cloudy 55 12.8 50 10 83 83 NE 9 15 29.99 1016 10 16 0.00 0.00
6:15 pm 18:15 Cloudy with Light Rain 55 12.8 51 10.6 87 87 ENE 7 11 30.03 1017 10 16 0.00 0.03
6:53 pm 18:53 Cloudy with Light Rain 55 12.8 51 10.6 87 87 Calm 30.01 1016 10 16 0.00 0.03
7:53 pm 19:53 Cloudy 55 12.8 51 10.6 87 87 NE 3 6 30.01 1016 10 16 0.01 0.25
8:53 pm 20:53 Mostly Cloudy 53 11.7 50 10 89 89 E 6 9 30.01 1016 10 16 0.00 0.00
9:53 pm 21:53 Cloudy 53 11.7 50 10 89 89 ENE 5 7 30.04 1017 9 14 0.00 0.00
10:53 pm 22:53 Cloudy with Mist and Fog 53 11.7 51 10.6 93 93 Calm 30.04 1017 5 8 0.00 0.00
11:35 pm 23:35 Cloudy with Mist and Fog 52 11.1 50 10 93 93 ESE 5 7 30.09 1019 3 5 0.00 0.00
11:45 pm 23:45 Cloudy with Mist and Fog 51 10.6 50 10 96 96 ESE 5 7 30.09 1019 3 5 0.00 0.00
11:53 pm 23:53 Cloudy with Mist and Fog 51 10.6 50 10 96 96 SE 3 6 30.04 1017 3 5 0.00 0.00

Powered by AerisWeather